Flag for Macedonia, Republic of Weather past 2 weeks in Ohrid, Macedonia, Republic of

Now
27 °F

Light snow. More clouds than sun.


Feels Like: 20 °F
Forecast: 6 / 19 °F
Wind: 6 mph from Northwest

Location: Ohrid Airport

Current Time: Dec 29, 2014 at 10:40:34 AM

Latest Report: Dec 29, 2014 at 10:00 AM


Visibility: N/A

Pressure: 29.77 "Hg

Humidity: 93%

Dew point: 25 °F

Location of OhridLocation

Historic Weather in Ohrid — Graph

°F

Ohrid temperature yesterday

Maximum temperature yesterday: 39 °F (at 11:00 AM)
Minimum temperature yesterday: 19 °F (at 5:00 AM)
Average temperature yesterday: 30 °F

Past Weeks' High & Low Weather Summary

 TemperatureHumidityPressure
High50 °F (Dec 16, 10:30 AM)93% (Dec 14, 9:30 AM)30.42 "Hg (Dec 14, 9:30 AM)
Low19 °F (Dec 28, 5:00 AM)36% (Dec 22, 11:00 AM)29.53 "Hg (Dec 28, 2:30 PM)
Average39 °F77%30.13 "Hg
* Reported Dec 14 9:00 AM — Dec 29 9:30 AM, Ohrid, Weather by CustomWeather, © 2014

Note: Actual official high and low records may vary slightly from our data, if they occured in-between our weather recording intervals... More about our weather records

Advertising

Ohrid weather history for previous 24 hours

 ConditionsComfort  
Time TempWeatherWind HumidityBarometerVisibility
9:30 AM
Dec 29
27 °FLight snow. More clouds than sun.5 mph93%29.74 "Hg3 mi
9:00 AM27 °FSnow. Mostly cloudy.9 mph93%29.71 "Hg1 mi
8:30 AM27 °FSnow. Mostly cloudy.3 mph93%29.68 "Hg1 mi
8:00 AM27 °FSnow. Mostly cloudy.3 mph93%29.68 "Hg1 mi
4:30 PM
Dec 28
32 °FHeavy snow. Ice fog.3 mph87%29.53 "Hg1 mi
4:00 PM32 °FHeavy snow. Ice fog.2 mph87%29.53 "Hg1 mi
3:30 PM32 °FHeavy snow. Ice fog.2 mph87%29.53 "Hg1 mi
3:00 PM34 °FRain. Fog.1 mph87%29.53 "Hg2 mi
2:30 PM36 °FThundershowers. Cloudy.5 mph81%29.53 "HgN/A
2:00 PM36 °FRain. Mostly cloudy.7 mph87%29.56 "Hg5 mi
1:30 PM34 °FRain. Cloudy.3 mph87%29.56 "Hg4 mi
1:00 PM37 °FLight rain. Cloudy.6 mph81%29.56 "HgN/A
12:30 PM37 °FDrizzle. Mostly cloudy.13 mph81%29.56 "HgN/A
12:00 PM39 °FDrizzle. Cloudy.21 mph75%29.56 "HgN/A
11:30 AM39 °FDrizzle. Cloudy.16 mph75%29.59 "HgN/A
11:00 AM39 °FCloudy.14 mph75%29.59 "HgN/A
10:30 AM32 °FMostly cloudy.2 mph80%29.62 "HgN/A
10:00 AM30 °FMostly cloudy.7 mph80%29.65 "HgN/A
Weather by CustomWeather, © 2014

See weather overviewHow to use our weather pages